Location: Memphis
(29.8667°N, 31.2500°E)
Time: 08:52:12
(UTC+00:00)

CSL-04 Rocket - Pass Details

Date: 03 March 2021
Orbit: 805 x 861 km, 98.9° (Epoch: 15 April)

Event Time Altitude Azimuth Distance (km) Brightness Sun altitude
Rises 16:35:52 0° 144° (SE) 3,423 6.5 -9.5°
Reaches altitude 10° 16:38:24 10° 136° (SE) 2,489 5.8 -10.1°
Maximum altitude 16:43:25 36° 71° (ENE) 1,321 4.2 -11.2°
Drops below altitude 10° 16:48:26 10° 6° (N) 2,488 6.1 -12.3°
Sets 16:50:57 0° 359° (N) 3,421 6.9 -12.8°
